Bodrum Milas, Turkey

7:43 AM +03 on February 22, 2017 (GMT +0300)
Bodrum

Weather History for LTFE - December, 2013

Change the Weather History Date:

Tuesday, December 17, 2013

  Actual Average Record
Temperature  
Mean Temperature 46 °F -  
Max Temperature 59 °F - - ()
Min Temperature 33 °F - - ()
Degree Days  
Heating Degree Days 19    
Moisture  
Dew Point 35 °F    
Average Humidity 72    
Maximum Humidity 93    
Minimum Humidity 39    
Precipitation  
Precipitation 0.00 in - - ()
Sea Level Pressure  
Sea Level Pressure 30.24 in    
Wind  
Wind Speed 4 mph ()    
Max Wind Speed 7 mph    
Max Gust Speed -    
T = Trace of Precipitation, MM = Missing Value Source: Averaged Metar Reports

Daily Weather History Graph

Daily Weather History Graph

Search for Another Location

Airport or City:

Trip Planner

Search our weather history database for the weather conditions in past years. The results will help you decide how hot, cold, wet, or windy it might be!

Date:

Astronomy

Dec. 17, 2013 Rise Set
Actual Time 7:17 AM EET 4:53 PM EET
Civil Twilight 6:48 AM EET 5:22 PM EET
Nautical Twilight 6:15 AM EET 5:55 PM EET
Astronomical Twilight 5:43 AM EET 6:27 PM EET
Moon 5:15 PM EET (12/17) 6:59 AM EET (12/17)
Length of Visible Light 10h 34m
Length of Day
9h 36m
Full, 100% of the Moon is Illuminated
Dec 17
Full
Dec 25
Last Quarter
Jan 1
New
Jan 8
First Quarter
Jan 16
Full

Hourly Weather History & Observations

Time (EET) Temp. Windchill Dew Point Humidity Pressure Visibility Wind Dir Wind Speed Gust Speed Precip Events Conditions
12:20 AM 41.0 °F - 39.2 °F 93% 30.27 in - Variable 2.3 mph - N/A   Clear
12:50 AM 41.0 °F 39.0 °F 37.4 °F 87% 30.27 in - East 3.5 mph - N/A   Clear
1:20 AM 39.2 °F 37.0 °F 37.4 °F 93% 30.27 in - ESE 3.5 mph - N/A   Clear
1:50 AM 41.0 °F 38.0 °F 37.4 °F 87% 30.27 in - ESE 4.6 mph - N/A   Clear
2:20 AM 39.2 °F - 37.4 °F 93% 30.27 in - East 2.3 mph - N/A   Clear
2:50 AM 37.4 °F - 35.6 °F 93% 30.27 in - Variable 2.3 mph - N/A   Clear
3:20 AM 39.2 °F 37.0 °F 35.6 °F 87% 30.27 in - SSE 3.5 mph - N/A   Clear
3:50 AM 37.4 °F 33.8 °F 35.6 °F 93% 30.27 in - SE 4.6 mph - N/A   Clear
4:20 AM 37.4 °F 34.9 °F 35.6 °F 93% 30.27 in - SE 3.5 mph - N/A   Clear
4:50 AM 37.4 °F 34.9 °F 35.6 °F 93% 30.27 in - ENE 3.5 mph - N/A   Clear
5:20 AM 35.6 °F 30.7 °F 32.0 °F 87% 30.27 in - ESE 5.8 mph - N/A   Clear
5:50 AM 35.6 °F 31.7 °F 33.8 °F 93% 30.27 in - SE 4.6 mph - N/A   Clear
6:20 AM 35.6 °F 29.9 °F 32.0 °F 87% 30.27 in - ESE 6.9 mph - N/A   Clear
6:50 AM 35.6 °F 29.9 °F 33.8 °F 93% 30.27 in - SE 6.9 mph - N/A   Clear
7:20 AM 33.8 °F - 32.0 °F 93% 30.27 in - Variable 2.3 mph - N/A   Clear
7:50 AM 35.6 °F 30.7 °F 32.0 °F 87% 30.27 in - ESE 5.8 mph - N/A   Clear
8:20 AM 37.4 °F 34.9 °F 35.6 °F 93% 30.27 in - SE 3.5 mph - N/A   Clear
8:50 AM 41.0 °F 37.1 °F 37.4 °F 87% 30.27 in - ESE 5.8 mph - N/A   Clear
9:20 AM 44.6 °F 43.1 °F 35.6 °F 71% 30.30 in - ESE 3.5 mph - N/A   Clear
9:50 AM 46.4 °F 45.2 °F 35.6 °F 66% 30.27 in - ESE 3.5 mph - N/A   Clear
10:20 AM 48.2 °F - 37.4 °F 66% 30.27 in - ENE 4.6 mph - N/A   Clear
10:50 AM 50.0 °F - 37.4 °F 62% 30.27 in - Variable 1.2 mph - N/A   Clear
11:20 AM 53.6 °F - 33.8 °F 47% 30.27 in - ESE 3.5 mph - N/A   Clear
11:50 AM 55.4 °F - 33.8 °F 44% 30.24 in - NE 3.5 mph - N/A   Clear
12:20 PM 57.2 °F - 35.6 °F 44% 30.24 in - Variable 1.2 mph - N/A   Clear
12:50 PM 57.2 °F - 35.6 °F 44% 30.24 in - West 3.5 mph - N/A   Clear
1:20 PM 59.0 °F - 33.8 °F 39% 30.21 in - Variable 2.3 mph - N/A   Clear
1:50 PM 57.2 °F - 35.6 °F 44% 30.21 in - Variable 2.3 mph - N/A   Clear
2:20 PM 57.2 °F - 35.6 °F 44% 30.21 in - West 3.5 mph - N/A   Clear
2:50 PM 57.2 °F - 37.4 °F 48% 30.21 in - NW 5.8 mph - N/A   Clear
3:20 PM 57.2 °F - 39.2 °F 51% 30.21 in - WNW 4.6 mph - N/A   Clear
3:50 PM 57.2 °F - 39.2 °F 51% 30.21 in - West 3.5 mph - N/A   Clear
4:20 PM 55.4 °F - 37.4 °F 51% 30.21 in - NW 3.5 mph - N/A   Clear
4:50 PM 51.8 °F - 39.2 °F 62% 30.21 in - Variable 2.3 mph - N/A   Clear
5:20 PM 46.4 °F 44.3 °F 35.6 °F 66% 30.21 in - East 4.6 mph - N/A   Clear
5:50 PM 46.4 °F - 37.4 °F 71% 30.21 in - Variable 2.3 mph - N/A   Clear
6:20 PM 44.6 °F 42.2 °F 35.6 °F 71% 30.21 in - East 4.6 mph - N/A   Clear
6:50 PM 44.6 °F 42.2 °F 35.6 °F 71% 30.21 in - ESE 4.6 mph - N/A   Clear
7:20 PM 46.4 °F 43.5 °F 32.0 °F 57% 30.21 in - SE 5.8 mph - N/A   Clear
7:50 PM 42.8 °F 40.1 °F 33.8 °F 70% 30.21 in - East 4.6 mph - N/A   Clear
8:20 PM 42.8 °F 39.3 °F 32.0 °F 66% 30.21 in - East 5.8 mph - N/A   Clear
8:50 PM 42.8 °F 40.1 °F 32.0 °F 66% 30.21 in - ESE 4.6 mph - N/A   Clear
9:20 PM 42.8 °F 41.1 °F 32.0 °F 66% 30.24 in - SE 3.5 mph - N/A   Clear
9:50 PM 41.0 °F 36.4 °F 33.8 °F 76% 30.24 in - SE 6.9 mph - N/A   Clear
10:20 PM 39.2 °F 34.2 °F 32.0 °F 75% 30.24 in - SE 6.9 mph - N/A   Clear
10:50 PM 39.2 °F 35.0 °F 33.8 °F 81% 30.24 in - SE 5.8 mph - N/A   Clear
11:20 PM 39.2 °F 35.9 °F 32.0 °F 75% 30.24 in - ESE 4.6 mph - N/A   Clear
11:50 PM 37.4 °F 34.9 °F 32.0 °F 81% 30.21 in - ESE 3.5 mph - N/A   Clear